Location: New Mesquite
(33.1168°N, 96.4336°W)
Time: 04:30:50
(UTC+00:00)

Meteor 1-27 Rocket - Pass Details

Date: 05 July 2022
Orbit: 829 x 911 km, 81.3° (Epoch: 13 August)

Event Time Altitude Azimuth Distance (km) Brightness Sun altitude
Rises 09:06:05 0° 348° (NNW) 3,412 7.4 -22.9°
Reaches altitude 10° 09:08:32 10° 346° (NNW) 2,464 6.6 -22.6°
Maximum altitude 09:14:03 67° 265° (W) 901 3.6 -21.8°
Enters shadow 09:15:42 44° 201° (SSW) 1,131 3.9 -21.6°
